When you browse on this site, cookies collect data to enhance your experience and personalize the content and advertising you see.
Visit our Privacy Policy to learn more. By continuing to use the site, you agree to this use of cookies and data.
  • In United Kingdom
  • List of Countries
  • For 7 days
  • Water Temperature
  • Weather Map
  • Weather Widgets
  • user-avatar
    Login

    Hourly Weather Khashuris

    Today, 23 September, Monday

    Time Temperature Precipitation Wind Pressure Humidity
    00:00 +5°C° 0 mm 1 mps 679 mmHg 84%
    01:00 +5°C° 0 mm 1 mps 679 mmHg 84%
    02:00 +5°C° 0 mm 1 mps 678 mmHg 83%
    03:00 +5°C° 0 mm 1 mps 678 mmHg 82%
    04:00 +5°C° 0 mm 1 mps 678 mmHg 81%
    05:00 +5°C° 0 mm 1 mps 678 mmHg 79%
    06:00 +5°C° 0 mm 1 mps 678 mmHg 77%
    07:00 +8°C° 0 mm 1 mps 678 mmHg 67%
    08:00 +11°C° 0 mm 1 mps 678 mmHg 57%
    09:00 +14°C° 0 mm 1 mps 679 mmHg 47%
    10:00 +16°C° 0 mm 1 mps 679 mmHg 42%
    11:00 +19°C° 0 mm 1 mps 679 mmHg 37%
    12:00 +20°C° 0 mm 2 mps 679 mmHg 31%
    13:00 +20°C° 0 mm 2 mps 679 mmHg 31%
    14:00 +20°C° 0 mm 2 mps 679 mmHg 31%
    15:00 +21°C° 0 mm 2 mps 678 mmHg 31%
    16:00 +18°C° 0 mm 2 mps 678 mmHg 42%
    17:00 +15°C° 0 mm 2 mps 677 mmHg 54%
    18:00 +12°C° 0 mm 1 mps 677 mmHg 66%
    19:00 +11°C° 0 mm 1 mps 677 mmHg 69%
    20:00 +10°C° 0 mm 1 mps 677 mmHg 72%
    21:00 +9°C° 0 mm 1 mps 677 mmHg 75%
    22:00 +9°C° 0 mm 1 mps 677 mmHg 74%
    23:00 +9°C° 0 mm 1 mps 677 mmHg 73%

    Tomorrow, 24 September, Tuesday

    Time Temperature Precipitation Wind Pressure Humidity
    00:00 +8°C° 0 mm 1 mps 677 mmHg 73%
    01:00 +8°C° 0 mm 1 mps 677 mmHg 72%
    02:00 +8°C° 0 mm 1 mps 677 mmHg 71%
    03:00 +8°C° 0 mm 1 mps 677 mmHg 71%
    04:00 +8°C° 0 mm 1 mps 677 mmHg 70%
    05:00 +8°C° 0 mm 1 mps 677 mmHg 69%
    06:00 +8°C° 0 mm 1 mps 677 mmHg 68%
    07:00 +9°C° 0 mm 2 mps 677 mmHg 60%
    08:00 +13°C° 0 mm 2 mps 678 mmHg 52%
    09:00 +16°C° 0 mm 3 mps 678 mmHg 44%
    10:00 +18°C° 0 mm 3 mps 678 mmHg 40%
    11:00 +20°C° 0 mm 3 mps 678 mmHg 36%
    12:00 +22°C° 0 mm 3 mps 678 mmHg 32%
    13:00 +22°C° 0 mm 3 mps 678 mmHg 31%
    14:00 +24°C° 0 mm 3 mps 678 mmHg 31%
    15:00 +24°C° 0 mm 2 mps 678 mmHg 30%
    16:00 +20°C° 0 mm 2 mps 677 mmHg 38%
    17:00 +19°C° 0 mm 1 mps 676 mmHg 46%
    18:00 +15°C° 0 mm 1 mps 676 mmHg 54%
    19:00 +14°C° 0 mm 1 mps 676 mmHg 58%
    20:00 +14°C° 0 mm 1 mps 676 mmHg 61%
    21:00 +13°C° 0 mm 1 mps 676 mmHg 65%
    22:00 +13°C° 0 mm 1 mps 676 mmHg 65%
    23:00 +13°C° 0 mm 1 mps 676 mmHg 65%

    Day after tomorrow, 25 September, Wednesday

    Time Temperature Precipitation Wind Pressure Humidity
    00:00 +13°C° 0 mm 1 mps 676 mmHg 65%
    01:00 +12°C° 0 mm 1 mps 676 mmHg 66%
    02:00 +12°C° 0 mm 1 mps 676 mmHg 67%
    03:00 +12°C° 0 mm 1 mps 676 mmHg 68%
    04:00 +12°C° 0 mm 1 mps 676 mmHg 69%
    05:00 +10°C° 0 mm 2 mps 676 mmHg 70%
    06:00 +10°C° 0 mm 2 mps 675 mmHg 71%
    07:00 +13°C° 0 mm 2 mps 676 mmHg 64%
    08:00 +16°C° 0 mm 2 mps 677 mmHg 57%
    09:00 +19°C° 0 mm 2 mps 677 mmHg 50%
    10:00 +21°C° 0 mm 2 mps 677 mmHg 44%
    11:00 +23°C° 0 mm 2 mps 678 mmHg 39%
    12:00 +25°C° 0 mm 2 mps 678 mmHg 33%
    13:00 +26°C° 0 mm 2 mps 678 mmHg 31%
    14:00 +26°C° 0 mm 2 mps 678 mmHg 29%
    15:00 +27°C° 0 mm 1 mps 678 mmHg 27%
    16:00 +24°C° 0 mm 1 mps 677 mmHg 35%
    17:00 +22°C° 0 mm 1 mps 676 mmHg 43%
    18:00 +19°C° 0 mm 1 mps 676 mmHg 52%
    19:00 +18°C° 0 mm 1 mps 676 mmHg 55%
    20:00 +18°C° 0 mm 1 mps 676 mmHg 58%
    21:00 +16°C° 0 mm 1 mps 677 mmHg 61%
    22:00 +16°C° 0 mm 1 mps 677 mmHg 61%
    23:00 +15°C° 0 mm 1 mps 677 mmHg 62%

    26 September, Thursday

    Time Temperature Precipitation Wind Pressure Humidity
    00:00 +15°C° 0 mm 1 mps 676 mmHg 63%
    01:00 +15°C° 0 mm 1 mps 677 mmHg 65%
    02:00 +15°C° 0 mm 2 mps 677 mmHg 66%
    03:00 +15°C° 0 mm 2 mps 677 mmHg 68%
    04:00 +14°C° 0 mm 2 mps 677 mmHg 71%
    05:00 +14°C° 0 mm 2 mps 677 mmHg 75%
    06:00 +14°C° 0 mm 2 mps 677 mmHg 79%
    07:00 +16°C° 0 mm 2 mps 677 mmHg 72%
    08:00 +18°C° 0 mm 3 mps 678 mmHg 65%
    09:00 +19°C° 0 mm 3 mps 678 mmHg 58%
    10:00 +21°C° 0 mm 3 mps 679 mmHg 53%
    11:00 +24°C° 0 mm 3 mps 679 mmHg 47%
    12:00 +25°C° 0 mm 2 mps 679 mmHg 42%
    13:00 +25°C° 0.1 mm 2 mps 679 mmHg 41%
    14:00 +25°C° 0.1 mm 2 mps 678 mmHg 41%
    15:00 +25°C° 0.1 mm 2 mps 678 mmHg 41%
    16:00 +23°C° 0 mm 2 mps 678 mmHg 52%
    17:00 +19°C° 0 mm 2 mps 677 mmHg 62%
    18:00 +17°C° 0 mm 2 mps 677 mmHg 73%
    19:00 +16°C° 0 mm 1 mps 677 mmHg 75%
    20:00 +15°C° 0 mm 1 mps 677 mmHg 77%
    21:00 +15°C° 0 mm 1 mps 677 mmHg 79%
    22:00 +14°C° 0 mm 1 mps 677 mmHg 78%
    23:00 +14°C° 0 mm 1 mps 677 mmHg 77%

    27 September, Friday

    Time Temperature Precipitation Wind Pressure Humidity
    00:00 +14°C° 0 mm 1 mps 677 mmHg 75%
    01:00 +14°C° 0 mm 1 mps 677 mmHg 74%
    02:00 +14°C° 0 mm 1 mps 677 mmHg 74%
    03:00 +14°C° 0 mm 1 mps 677 mmHg 73%
    04:00 +13°C° 0 mm 1 mps 677 mmHg 74%
    05:00 +13°C° 0 mm 1 mps 677 mmHg 75%
    06:00 +13°C° 0 mm 1 mps 677 mmHg 76%
    07:00 +15°C° 0 mm 1 mps 677 mmHg 69%
    08:00 +17°C° 0 mm 2 mps 677 mmHg 62%
    09:00 +20°C° 0 mm 2 mps 678 mmHg 54%
    10:00 +23°C° 0 mm 2 mps 678 mmHg 49%
    11:00 +24°C° 0 mm 2 mps 678 mmHg 43%
    12:00 +26°C° 0 mm 2 mps 679 mmHg 38%
    13:00 +26°C° 0.1 mm 2 mps 678 mmHg 38%
    14:00 +27°C° 0.1 mm 2 mps 678 mmHg 38%
    15:00 +27°C° 0.1 mm 2 mps 678 mmHg 38%
    16:00 +24°C° 0.1 mm 2 mps 677 mmHg 46%
    17:00 +22°C° 0.1 mm 1 mps 677 mmHg 55%
    18:00 +20°C° 0.1 mm 1 mps 676 mmHg 63%
    19:00 +19°C° 0.2 mm 1 mps 676 mmHg 68%
    20:00 +18°C° 0.2 mm 1 mps 676 mmHg 74%
    21:00 +16°C° 0.2 mm 1 mps 676 mmHg 79%
    22:00 +16°C° 2.1 mm 1 mps 676 mmHg 85%
    23:00 +15°C° 2.1 mm 1 mps 676 mmHg 90%

    28 September, Saturday

    Time Temperature Precipitation Wind Pressure Humidity
    00:00 +15°C° 2.1 mm 1 mps 676 mmHg 96%
    01:00 +14°C° 3.2 mm 2 mps 676 mmHg 96%
    02:00 +14°C° 3.2 mm 2 mps 676 mmHg 96%
    03:00 +13°C° 3.2 mm 3 mps 676 mmHg 96%
    04:00 +13°C° 0.8 mm 3 mps 676 mmHg 95%
    05:00 +12°C° 0.8 mm 3 mps 676 mmHg 95%
    06:00 +13°C° 0.8 mm 2 mps 676 mmHg 94%
    07:00 +13°C° 0.2 mm 3 mps 677 mmHg 92%
    08:00 +13°C° 0.2 mm 3 mps 677 mmHg 89%
    09:00 +14°C° 0.2 mm 3 mps 677 mmHg 87%
    10:00 +14°C° 0.6 mm 3 mps 678 mmHg 86%
    11:00 +14°C° 0.6 mm 4 mps 678 mmHg 86%
    12:00 +15°C° 0.6 mm 4 mps 678 mmHg 86%
    13:00 +14°C° 0.5 mm 4 mps 678 mmHg 87%
    14:00 +14°C° 0.5 mm 4 mps 678 mmHg 89%
    15:00 +13°C° 0.5 mm 4 mps 677 mmHg 90%
    16:00 +13°C° 0.2 mm 4 mps 678 mmHg 92%
    17:00 +12°C° 0.2 mm 3 mps 678 mmHg 94%
    18:00 +12°C° 0.2 mm 3 mps 678 mmHg 95%
    19:00 +12°C° 0 mm 3 mps 679 mmHg 95%
    20:00 +13°C° 0 mm 2 mps 679 mmHg 95%
    21:00 +13°C° 0 mm 2 mps 679 mmHg 95%
    22:00 +12°C° 0.1 mm 2 mps 679 mmHg 95%
    23:00 +12°C° 0.1 mm 2 mps 679 mmHg 95%
    Show more